New Windsor, NY

7:29 PM EST on December 03, 2016 (GMT -0500)
Stewart International

Weather History for KSWF - April, 2013

Change the Weather History Date:

Tuesday, April 9, 2013

  Actual Average Record
Temperature  
Mean Temperature 63 °F -  
Max Temperature 73 °F 54 °F 85 °F (1991)
Min Temperature 53 °F 34 °F 18 °F (1977)
Degree Days  
Heating Degree Days 2    
Growing Degree Days 13 (Base 50)    
Moisture  
Dew Point 45 °F    
Average Humidity 48    
Maximum Humidity 82    
Minimum Humidity 29    
Precipitation  
Precipitation 0.00 in - - ()
Sea Level Pressure  
Sea Level Pressure 29.95 in    
Wind  
Wind Speed 9 mph (WNW)    
Max Wind Speed 23 mph    
Max Gust Speed 34 mph    
Visibility 18 miles    
Events      
Averages and records for this station are not official NWS values.
T = Trace of Precipitation, MM = Missing Value Source: NWS Daily Summary

Daily Weather History Graph

Daily Weather History Graph

Search for Another Location

Airport or City:

Trip Planner

Search our weather history database for the weather conditions in past years. The results will help you decide how hot, cold, wet, or windy it might be!

Date:

Astronomy

Apr. 09, 2013 Rise Set
Actual Time 6:25 AM EDT 7:30 PM EDT
Civil Twilight 5:57 AM EDT 7:59 PM EDT
Nautical Twilight 5:23 AM EDT 8:33 PM EDT
Astronomical Twilight 4:48 AM EDT 9:08 PM EDT
Moon 5:47 AM EDT (4/9) 7:03 PM EDT (4/9)
Length of Visible Light 14h 01m
Length of Day
13h 04m
Waning Crescent, 1% of the Moon is Illuminated
Apr 9
Waning Crescent
Apr 10
New
Apr 18
First Quarter
Apr 25
Full
May 2
Last Quarter

Hourly Weather History & Observations

Time (EDT) Temp. Dew Point Humidity Pressure Visibility Wind Dir Wind Speed Gust Speed Precip Events Conditions
12:45 AM 57.2 °F 44.6 °F 63% 29.98 in 15.0 mi South 4.6 mph - N/A   Overcast
2:45 AM 57.2 °F 46.4 °F 67% 29.92 in 15.0 mi Calm Calm - N/A   Mostly Cloudy
3:45 AM 59.0 °F 48.2 °F 67% 29.91 in 15.0 mi Variable 4.6 mph - N/A   Mostly Cloudy
4:45 AM 55.4 °F 48.2 °F 77% 29.91 in 15.0 mi Calm Calm - N/A   Mostly Cloudy
5:45 AM 53.6 °F 48.2 °F 82% 29.91 in 20.0 mi Calm Calm - N/A   Mostly Cloudy
6:45 AM 60.8 °F 50.0 °F 68% 29.91 in 20.0 mi WSW 11.5 mph - N/A   Scattered Clouds
7:45 AM 62.6 °F 50.0 °F 63% 29.92 in 20.0 mi WSW 11.5 mph - N/A   Partly Cloudy
8:45 AM 68.0 °F 50.0 °F 52% 29.91 in 20.0 mi West 17.3 mph - N/A   Clear
9:45 AM 71.6 °F 48.2 °F 43% 29.93 in 20.0 mi West 23.0 mph 31.1 mph N/A   Partly Cloudy
10:45 AM 71.6 °F 46.4 °F 41% 29.95 in 20.0 mi WNW 18.4 mph 33.4 mph N/A   Partly Cloudy
11:45 AM 71.6 °F 42.8 °F 35% 29.98 in 20.0 mi NW 23.0 mph 34.5 mph N/A   Clear
12:45 PM 71.6 °F 42.8 °F 35% 29.98 in 20.0 mi NNW 19.6 mph 33.4 mph N/A   Clear
1:50 PM 71.6 °F 42.8 °F 35% 29.99 in 20.0 mi WNW 17.3 mph - N/A   Clear
2:50 PM 73.4 °F 41.0 °F 31% 29.99 in 20.0 mi NW 13.8 mph 23.0 mph N/A   Scattered Clouds
3:45 PM 73.4 °F 39.2 °F 29% 29.98 in 20.0 mi WNW 13.8 mph 23.0 mph N/A   Scattered Clouds
4:55 PM 73.4 °F 39.2 °F 29% 29.96 in 20.0 mi WNW 13.8 mph 23.0 mph N/A   Clear
5:45 PM 73.4 °F 39.2 °F 29% 29.97 in 20.0 mi NW 11.5 mph 20.7 mph N/A   Scattered Clouds
7:45 PM 68.0 °F 37.4 °F 33% 29.96 in 10.0 mi Variable 5.8 mph - N/A   Scattered Clouds
8:45 PM 64.4 °F 41.0 °F 42% 29.99 in 10.0 mi East 9.2 mph - N/A   Scattered Clouds